Weather History for Lewisburg, WV

Change the Weather History Date:

Friday, June 21, 2013

  Actual Average Record
Temperature  
Mean Temperature 66 °F 68 °F  
Max Temperature 80 °F 80 °F 90 °F (1988)
Min Temperature 53 °F 56 °F 41 °F (1980)
Degree Days  
Heating Degree Days 0    
Month to date heating degree days  
Since 1 June heating degree days  
Since 1 July heating degree days  
Cooling Degree Days 2    
Month to date cooling degree days  
Year to date cooling degree days  
Since 1 June cooling degree days  
Growing Degree Days 16 (Base 50)    
Moisture  
Dew Point 56 °F    
Average Humidity 68    
Maximum Humidity 94    
Minimum Humidity 42    
Precipitation  
Precipitation 0.04 in 0.12 in 2.46 in (1972)
Month to date precipitation 2.65  
Year to date precipitation 19.83  
Snow  
Snow 0.00 in - - ()
Month to date snowfall  
Since 1 June snowfall  
Since 1 July snowfall  
Snow Depth -    
Sea Level Pressure  
Sea Level Pressure 30.32 in    
Wind  
Wind Speed 1 mph (SSW)    
Max Wind Speed 6 mph    
Max Gust Speed -    
Visibility 8 miles    
Events Fog    
T = Trace of Precipitation, MM = Missing Value Source: NWS Daily Summary

Daily Weather History Graph

Daily Weather History Graph

Search for Another Location

Airport:

Trip Planner

Search our weather history database for the weather conditions in past years. The results will help you decide how hot, cold, wet, or windy it might be!

Date:

Astronomy

Jun. 21, 2013 Rise Set
Actual Time 5:59 AM EDT 8:47 PM EDT
Civil Twilight 5:28 AM EDT 9:18 PM EDT
Nautical Twilight 4:48 AM EDT 9:57 PM EDT
Astronomical Twilight 4:04 AM EDT 10:42 PM EDT
Moon 6:57 PM EDT (6/21) 4:12 AM EDT (6/21)
Length of Visible Light 15h 50m
Length of Day
14h 47m
Waxing Gibbous, 95% of the Moon is Illuminated
Jun 21
Waxing Gibbous
Jun 23
Full
Jun 30
Last Quarter
Jul 8
New
Jul 15
First Quarter

Hourly Weather History & Observations

Time (EDT) Temp. Heat Index Dew Point Humidity Pressure Visibility Wind Dir Wind Speed Gust Speed Precip Events Conditions
12:15 AM 60.8 °F - 55.4 °F 82% 30.32 in 10.0 mi Calm Calm - N/A   Overcast
12:35 AM 60.8 °F - 55.4 °F 82% 30.32 in 10.0 mi Calm Calm - N/A   Overcast
12:55 AM 60.8 °F - 55.4 °F 82% 30.32 in 10.0 mi Calm Calm - N/A   Scattered Clouds
1:15 AM 60.8 °F - 55.4 °F 82% 30.32 in 10.0 mi Calm Calm - N/A   Mostly Cloudy
1:35 AM 60.8 °F - 55.4 °F 82% 30.32 in 10.0 mi Calm Calm - N/A   Overcast
1:55 AM 60.8 °F - 55.4 °F 82% 30.31 in 7.0 mi Calm Calm - N/A   Overcast
2:15 AM 59.0 °F - 55.4 °F 88% 30.31 in 7.0 mi Calm Calm - N/A   Scattered Clouds
2:35 AM 59.0 °F - 55.4 °F 88% 30.32 in 7.0 mi Calm Calm - N/A   Clear
2:55 AM 59.0 °F - 53.6 °F 82% 30.31 in 5.0 mi Calm Calm - N/A   Scattered Clouds
3:15 AM 57.2 °F - 53.6 °F 88% 30.31 in 4.0 mi Calm Calm - N/A   Clear
3:35 AM 57.2 °F - 55.4 °F 94% 30.32 in 5.0 mi Calm Calm - N/A   Scattered Clouds
3:55 AM 57.2 °F - 53.6 °F 88% 30.32 in 4.0 mi Calm Calm - N/A   Overcast
4:15 AM 57.2 °F - 53.6 °F 88% 30.32 in 5.0 mi Calm Calm - N/A   Overcast
4:35 AM 57.2 °F - 55.4 °F 94% 30.32 in 5.0 mi Calm Calm - N/A   Overcast
4:55 AM 57.2 °F - 55.4 °F 94% 30.33 in 4.0 mi Calm Calm - N/A   Mostly Cloudy
5:15 AM 55.4 °F - 53.6 °F 94% 30.33 in 5.0 mi Calm Calm - N/A   Clear
5:35 AM 57.2 °F - 55.4 °F 94% 30.33 in 5.0 mi Calm Calm - N/A   Clear
5:55 AM 55.4 °F - 53.6 °F 94% 30.33 in 1.2 mi Calm Calm - N/A   Mist
6:15 AM 53.6 °F - 51.8 °F 94% 30.33 in 0.2 mi Calm Calm - N/A Fog Fog
6:35 AM 55.4 °F - 53.6 °F 94% 30.33 in 0.2 mi Calm Calm - N/A Fog Fog
6:55 AM 55.4 °F - 53.6 °F 94% 30.34 in 0.2 mi Calm Calm - N/A Fog Fog
7:15 AM 55.4 °F - 53.6 °F 94% 30.34 in 0.2 mi Calm Calm - N/A Fog Fog
7:35 AM 55.4 °F - 53.6 °F 94% 30.34 in 0.2 mi NNE 4.6 mph - N/A Fog Fog
7:55 AM 57.2 °F - 55.4 °F 94% 30.35 in 0.2 mi Calm Calm - N/A Fog Fog
8:15 AM 59.0 °F - 55.4 °F 88% 30.35 in 1.2 mi Calm Calm - N/A   Overcast
8:35 AM 60.8 °F - 59.0 °F 94% 30.35 in 10.0 mi Calm Calm - N/A   Scattered Clouds
8:55 AM 62.6 °F - 59.0 °F 88% 30.35 in 10.0 mi Calm Calm - N/A   Clear
9:15 AM 64.4 °F - 55.4 °F 73% 30.34 in 10.0 mi Calm Calm - N/A   Clear
9:35 AM 64.4 °F - 57.2 °F 77% 30.34 in 10.0 mi Calm Calm - N/A   Clear
9:55 AM 66.2 °F - 55.4 °F 68% 30.34 in 10.0 mi Calm Calm - N/A   Scattered Clouds
10:15 AM 68.0 °F - 55.4 °F 64% 30.34 in 10.0 mi Calm Calm - 0.04 in   Scattered Clouds
10:35 AM 69.8 °F - 57.2 °F 64% 30.34 in - West 4.6 mph - 0.04 in   Scattered Clouds
10:55 AM 71.6 °F - 57.2 °F 60% 30.35 in 10.0 mi Calm Calm - 0.04 in   Scattered Clouds
11:15 AM 71.6 °F - 55.4 °F 57% 30.34 in 10.0 mi WNW 3.5 mph - N/A   Clear
11:35 AM 71.6 °F - 55.4 °F 57% 30.34 in 10.0 mi Calm Calm - N/A   Scattered Clouds
11:55 AM 73.4 °F - 55.4 °F 53% 30.34 in 10.0 mi West 3.5 mph - N/A   Clear
12:15 PM 75.2 °F - 59.0 °F 57% 30.34 in 10.0 mi WSW 4.6 mph - N/A   Clear
12:35 PM 75.2 °F - 55.4 °F 50% 30.34 in 10.0 mi Calm Calm - N/A   Clear
12:55 PM 75.2 °F - 55.4 °F 50% 30.34 in 10.0 mi SW 3.5 mph - N/A   Scattered Clouds
1:15 PM 77.0 °F - 57.2 °F 50% 30.33 in 10.0 mi Calm Calm - N/A   Scattered Clouds
1:35 PM 77.0 °F - 55.4 °F 47% 30.33 in 10.0 mi Calm Calm - N/A   Scattered Clouds
1:55 PM 77.0 °F - 55.4 °F 47% 30.33 in 10.0 mi Calm Calm - N/A   Mostly Cloudy
2:15 PM 77.0 °F - 55.4 °F 47% 30.33 in 10.0 mi WSW 5.8 mph - N/A   Scattered Clouds
2:35 PM 78.8 °F - 55.4 °F 44% 30.32 in 10.0 mi SW 3.5 mph - N/A   Scattered Clouds
2:55 PM 77.0 °F - 55.4 °F 47% 30.32 in 10.0 mi ENE 3.5 mph - N/A   Scattered Clouds
3:15 PM 78.8 °F - 53.6 °F 42% 30.32 in 10.0 mi West 3.5 mph - N/A   Scattered Clouds
3:35 PM 78.8 °F - 53.6 °F 42% 30.31 in 10.0 mi SW 3.5 mph - N/A   Mostly Cloudy
3:55 PM 78.8 °F - 53.6 °F 42% 30.31 in 10.0 mi Calm Calm - N/A   Scattered Clouds
4:15 PM 78.8 °F - 53.6 °F 42% 30.30 in 10.0 mi Calm Calm - N/A   Mostly Cloudy
4:35 PM 80.6 °F 80.5 °F 55.4 °F 42% 30.29 in 10.0 mi South 5.8 mph - N/A   Overcast
4:55 PM 77.0 °F - 59.0 °F 54% 30.29 in 10.0 mi SE 4.6 mph - N/A   Overcast
5:15 PM 77.0 °F - 59.0 °F 54% 30.28 in 10.0 mi SSE 4.6 mph - N/A   Scattered Clouds
5:35 PM 78.8 °F - 57.2 °F 47% 30.27 in 10.0 mi South 5.8 mph - N/A   Clear
5:55 PM 78.8 °F - 57.2 °F 47% 30.27 in 10.0 mi SSE 5.8 mph - N/A   Clear
6:15 PM 78.8 °F - 57.2 °F 47% 30.28 in 10.0 mi SSW 3.5 mph - N/A   Clear
6:35 PM 77.0 °F - 57.2 °F 50% 30.28 in 10.0 mi SSE 4.6 mph - N/A   Scattered Clouds
6:55 PM 77.0 °F - 57.2 °F 50% 30.27 in 10.0 mi South 5.8 mph - N/A   Scattered Clouds
7:15 PM 77.0 °F - 57.2 °F 50% 30.27 in 10.0 mi SSE 3.5 mph - N/A   Clear
7:35 PM 75.2 °F - 57.2 °F 53% 30.28 in 10.0 mi SSE 3.5 mph - N/A   Clear
7:55 PM 73.4 °F - 57.2 °F 57% 30.27 in 10.0 mi South 4.6 mph - N/A   Clear
8:15 PM 73.4 °F - 57.2 °F 57% 30.28 in 10.0 mi SSE 4.6 mph - N/A   Clear
8:35 PM 71.6 °F - 57.2 °F 60% 30.28 in 10.0 mi Calm Calm - N/A   Clear
8:55 PM 69.8 °F - 57.2 °F 64% 30.28 in 10.0 mi Calm Calm - N/A   Clear
9:15 PM 69.8 °F - 57.2 °F 64% 30.29 in 10.0 mi Calm Calm - N/A   Clear
9:35 PM 69.8 °F - 57.2 °F 64% 30.29 in 10.0 mi Calm Calm - N/A   Clear
9:55 PM 69.8 °F - 57.2 °F 64% 30.30 in 10.0 mi Calm Calm - N/A   Clear
10:15 PM 68.0 °F - 57.2 °F 68% 30.31 in 10.0 mi Calm Calm - N/A   Scattered Clouds
10:35 PM 68.0 °F - 57.2 °F 68% 30.32 in 10.0 mi Calm Calm - N/A   Mostly Cloudy
10:55 PM 68.0 °F - 55.4 °F 64% 30.33 in 10.0 mi Calm Calm - N/A   Mostly Cloudy
11:15 PM 68.0 °F - 55.4 °F 64% 30.33 in 10.0 mi Calm Calm - N/A   Mostly Cloudy
11:35 PM 64.4 °F - 55.4 °F 73% 30.33 in 10.0 mi Calm Calm - N/A   Scattered Clouds
11:55 PM 64.4 °F - 55.4 °F 73% 30.33 in 10.0 mi Calm Calm - N/A   Clear